Total_Precipitation_Accumulation
0.35 0.31 0.33 0.29 0.26 0.25 0.29 0.34 0.43 0.50 0.47 0.45 0.45 0.48 0.46 0.42 0.41 0.42 0.43 0.49 0.60 0.70 0.80 0.93 1.20 1.39 1.49 1.55 1.58 1.76 1.92 1.89 1.77 1.72 1.74 1.74 1.79 1.74 1.67 1.56 1.58 1.53 1.36
0.30 0.29 0.30 0.28 0.25 0.25 0.29 0.34 0.43 0.51 0.48 0.49 0.49 0.48 0.47 0.47 0.43 0.42 0.46 0.51 0.61 0.73 0.75 0.81 0.91 1.06 1.14 1.23 1.32 1.64 1.88 1.74 1.83 2.12 2.26 2.06 1.97 1.82 1.80 1.67 1.77 2.00 1.51
0.26 0.30 0.27 0.34 0.30 0.26 0.28 0.33 0.42 0.53 0.53 0.56 0.54 0.50 0.49 0.50 0.48 0.48 0.52 0.58 0.72 0.85 0.85 0.86 0.96 1.08 1.12 1.18 1.28 1.52 1.81 1.87 2.00 2.40 2.80 2.37 2.18 2.08 1.91 1.74 1.61 1.63 1.47
0.26 0.27 0.24 0.30 0.34 0.29 0.29 0.34 0.46 0.57 0.58 0.64 0.57 0.54 0.53 0.53 0.53 0.55 0.57 0.61 0.76 0.90 0.95 0.98 1.00 1.02 1.04 1.09 1.26 1.48 1.74 1.93 2.19 2.52 2.87 2.66 2.47 2.53 2.26 1.96 1.72 1.58 1.46
0.33 0.29 0.27 0.28 0.31 0.31 0.32 0.36 0.50 0.60 0.63 0.70 0.64 0.63 0.64 0.62 0.57 0.57 0.62 0.65 0.72 0.89 0.93 0.92 0.90 0.88 0.96 1.03 1.18 1.38 1.72 2.03 2.28 2.51 3.02 3.28 3.29 2.93 2.29 1.90 1.77 1.71 1.59
0.42 0.35 0.28 0.32 0.33 0.38 0.41 0.44 0.58 0.63 0.71 0.77 0.74 0.74 0.76 0.75 0.70 0.66 0.72 0.78 0.78 0.85 0.89 0.89 0.92 0.93 0.98 1.06 1.17 1.32 1.55 1.98 2.19 2.33 3.04 3.26 2.96 2.78 2.33 2.01 1.86 1.69 1.52
0.50 0.42 0.33 0.36 0.43 0.48 0.54 0.56 0.71 0.76 0.82 0.88 0.91 0.88 0.84 0.83 0.80 0.76 0.81 0.87 0.89 0.86 0.85 0.89 0.96 0.95 0.95 1.08 1.15 1.22 1.32 1.70 1.91 2.66 2.88 2.86 2.89 2.82 2.58 2.30 2.09 1.82 1.56
0.56 0.47 0.42 0.42 0.56 0.69 0.72 0.71 0.82 0.83 0.92 0.98 1.04 1.01 0.92 0.83 0.76 0.76 0.82 0.86 0.91 0.95 0.89 0.85 0.86 0.87 0.94 1.07 1.13 1.20 1.33 1.39 1.55 2.19 2.52 2.52 2.45 2.56 2.71 2.39 2.11 1.94 1.76
0.69 0.57 0.51 0.50 0.68 0.91 0.95 0.87 0.87 0.85 0.92 1.02 1.17 1.18 1.02 0.90 0.81 0.80 0.84 0.88 0.95 0.96 0.86 0.78 0.79 0.83 0.89 0.96 1.09 1.13 1.27 1.47 1.60 1.99 2.10 2.30 2.09 2.31 2.70 2.57 2.11 1.94 1.89
1.03 0.84 0.72 0.73 0.83 0.94 0.95 0.99 0.95 0.91 1.00 1.11 1.22 1.23 1.13 1.02 0.93 0.92 0.89 0.94 0.95 1.01 0.97 0.92 0.90 0.91 0.91 0.93 1.03 1.18 1.29 1.44 1.54 1.81 2.43 2.32 2.02 2.51 2.83 2.68 2.34 2.14 2.05
1.18 1.27 1.19 1.10 1.08 1.07 1.04 1.05 1.13 1.10 1.13 1.16 1.23 1.21 1.14 1.11 1.21 1.17 1.01 1.06 1.10 1.21 1.26 1.19 1.13 1.10 1.06 1.07 1.16 1.29 1.39 1.22 1.51 2.11 2.62 2.41 2.28 2.70 2.90 2.75 2.55 2.42 2.27
1.43 1.56 1.60 1.58 1.54 1.47 1.37 1.51 1.54 1.35 1.29 1.25 1.38 1.27 1.22 1.48 1.58 1.40 1.49 1.50 1.51 1.51 1.53 1.49 1.38 1.29 1.21 1.13 1.25 1.39 1.24 1.29 1.78 2.35 2.39 2.03 2.38 2.88 3.06 2.90 2.73 2.67 2.58
1.84 1.65 1.60 1.87 1.98 2.03 2.11 1.95 1.92 1.86 1.80 1.72 1.81 1.72 1.74 1.94 1.85 1.85 1.92 1.80 1.71 1.71 1.72 1.82 1.64 1.31 1.21 1.35 1.47 1.44 1.42 1.51 1.79 2.22 2.31 2.12 2.42 2.99 3.25 3.14 2.92 2.85 2.88
2.20 2.02 1.81 1.88 1.96 2.12 2.30 2.27 2.21 2.12 2.06 2.00 2.05 1.88 2.08 2.28 2.36 2.34 2.39 2.17 2.11 2.10 2.22 2.22 2.08 1.76 1.55 1.52 1.50 1.54 1.63 1.70 1.89 2.17 2.22 1.98 2.18 2.74 3.30 3.39 3.18 3.02 3.00
2.56 2.44 2.27 2.07 2.02 2.18 2.47 2.62 2.59 2.58 2.44 2.51 2.61 2.36 2.38 2.42 2.47 2.77 2.76 2.92 2.58 2.56 2.67 2.63 2.42 2.30 2.08 1.88 1.80 1.75 1.81 1.84 1.91 2.09 2.07 2.03 2.18 2.56 3.11 3.43 3.46 3.40 3.35
3.17 2.84 2.58 2.44 2.29 2.29 2.44 2.77 2.88 2.69 2.73 2.83 2.92 2.77 2.77 2.81 2.90 3.23 3.33 3.33 3.11 3.17 3.35 3.37 3.16 2.92 2.64 2.54 2.32 2.26 2.21 2.23 2.37 2.37 2.31 2.22 2.11 2.20 2.75 3.28 3.63 3.80 3.73
3.31 3.20 2.97 2.84 2.82 2.65 2.62 2.92 3.02 2.92 2.89 2.96 3.14 3.19 3.11 3.18 3.47 3.58 3.88 3.82 3.61 3.63 3.67 3.63 3.84 3.79 3.25 2.92 2.81 2.78 2.70 2.59 2.76 2.84 2.89 2.70 2.37 2.28 2.47 2.87 3.23 3.45 3.53
3.47 3.25 3.17 2.85 2.82 3.06 3.12 3.40 3.35 3.41 3.58 3.54 3.58 3.76 3.71 3.72 3.82 3.87 3.89 3.95 3.87 3.87 4.17 4.29 4.25 4.14 3.89 3.50 3.34 3.13 2.98 3.01 2.83 2.84 2.93 2.79 2.70 2.36 2.24 2.33 2.60 2.81 3.13
2.95 3.03 3.14 3.08 3.06 3.13 3.36 3.77 3.91 4.13 4.31 4.48 4.54 4.74 4.64 4.42 4.30 4.36 4.32 4.45 4.30 4.36 4.34 4.22 4.61 4.55 4.42 4.00 3.52 3.32 3.04 3.01 2.88 2.58 2.61 2.62 2.59 2.44 2.33 2.23 2.45 2.63 2.90
2.90 3.04 3.20 3.38 3.61 3.58 3.66 3.94 4.41 4.65 4.80 5.15 5.20 5.20 5.27 5.26 5.09 5.08 5.03 5.03 4.88 4.74 4.62 4.61 4.71 4.51 4.37 4.08 3.56 3.29 2.97 2.63 2.54 2.53 2.29 2.40 2.36 2.16 2.24 2.27 2.39 2.29 2.62
3.04 3.21 3.19 3.42 3.83 4.10 4.49 4.51 4.75 5.25 5.60 5.70 5.76 5.72 5.64 5.59 5.59 5.43 5.27 5.35 5.20 4.94 4.70 4.64 4.63 4.53 4.20 4.14 4.15 3.70 3.02 2.59 2.37 2.20 2.21 2.28 2.11 2.09 2.36 2.35 2.27 2.19 2.13
3.07 3.31 3.43 3.57 4.07 4.57 5.15 5.70 6.10 6.53 6.55 6.65 6.57 6.43 6.10 5.96 5.88 5.70 5.70 5.52 5.32 5.16 4.89 4.67 4.63 4.54 4.21 4.23 4.25 4.18 3.40 2.84 2.24 1.78 1.88 1.93 1.91 2.00 2.08 2.03 2.00 2.05 2.05
3.07 3.30 3.46 3.82 4.49 5.35 5.94 6.44 6.99 7.33 7.01 6.72 6.45 6.34 6.24 6.17 6.09 5.99 5.95 5.67 5.45 5.19 4.84 4.58 4.46 4.38 4.25 4.25 4.13 4.24 3.64 2.94 2.42 1.97 1.72 1.64 1.70 1.85 1.85 1.92 1.88 1.88 1.95
3.06 3.23 3.47 4.13 4.84 5.51 6.13 6.76 7.35 7.62 7.61 7.36 6.80 6.32 5.91 5.65 5.45 5.38 5.38 5.24 5.05 4.75 4.50 4.19 4.09 4.04 4.17 4.02 3.98 3.77 3.48 3.11 2.88 2.47 2.04 1.79 1.75 1.76 1.76 1.77 1.79 1.84 1.90
2.76 3.25 3.61 4.24 4.94 5.60 6.38 7.15 7.58 7.78 7.75 7.37 6.58 5.79 5.24 4.95 4.70 4.51 4.49 4.42 4.25 4.04 3.85 3.78 3.81 3.74 3.68 3.54 3.44 3.45 3.47 3.41 3.06 2.71 2.34 2.05 1.95 1.83 1.79 1.81 1.93 1.97 1.94
2.68 3.08 3.59 3.94 4.56 5.28 5.92 6.54 6.75 6.90 6.82 6.38 5.95 5.45 5.05 4.56 4.13 3.80 3.67 3.58 3.41 3.26 3.25 3.26 3.33 3.31 3.32 3.31 3.23 3.10 3.08 3.08 2.90 2.81 2.51 2.22 2.19 2.00 1.91 1.84 1.80 1.88 1.93